Location: Newark
(40.3500°N, 15.2333°E)
Time: 03:44:56
(UTC+00:00)

Altair - Pass Details

Date: 23 January 2020
Orbit: 1502 x 1682 km, 47.2° (Epoch: 16 February)

Event Time Altitude Azimuth Distance (km) Brightness Sun altitude
Rises 12:48:31 0° 294° (WNW) 4,938 10.2 26.0°
Reaches altitude 10° 12:51:44 10° 296° (WNW) 3,946 9.7 25.7°
Maximum altitude 13:01:56 76° 22° (NNE) 1,705 8.0 24.8°
Drops below altitude 10° 13:11:50 10° 108° (ESE) 3,842 9.5 23.9°
Sets 13:14:54 0° 110° (ESE) 4,803 10.0 23.6°
